| time (UTC) | temp F | wind direction | speed MPH | gust MPH | rain 1hr in | rain 24hr in | rain mn in | humidity % | barometer mb |
| 20260505011150 | 74 | 169 | 0.0 | 1.0 | 0.00 | 0.00 | 0.00 | 61 | 1000.9 |
| 20260505010645 | 74 | 174 | 1.0 | 1.0 | 0.00 | 0.00 | 0.00 | 61 | 1001.0 |
| 20260505010143 | 75 | 173 | 1.0 | 1.0 | 0.00 | 0.00 | 0.00 | 60 | 1000.8 |
| 20260505005638 | 75 | 176 | 1.0 | 1.0 | 0.00 | 0.00 | 0.00 | 59 | 1000.8 |
| 20260505005135 | 77 | 182 | 1.0 | 1.0 | 0.00 | 0.00 | 0.00 | 58 | 1000.7 |
| 20260505004632 | 77 | 171 | 0.0 | 0.0 | 0.00 | 0.00 | 0.00 | 56 | 1000.5 |
| 20260505004129 | 78 | 178 | 1.0 | 1.0 | 0.00 | 0.00 | 0.00 | 54 | 1000.6 |
| 20260505003626 | 79 | 167 | 0.0 | 1.0 | 0.00 | 0.00 | 0.00 | 50 | 1000.4 |
| 20260505003124 | 79 | 166 | 0.0 | 0.0 | 0.00 | 0.00 | 0.00 | 49 | 1000.4 |
| 20260505002620 | 79 | 182 | 1.0 | 1.0 | 0.00 | 0.00 | 0.00 | 48 | 1000.5 |
| 20260505002118 | 80 | 211 | 2.0 | 2.0 | 0.00 | 0.00 | 0.00 | 48 | 1000.6 |
| 20260505001615 | 80 | 204 | 1.0 | 2.0 | 0.00 | 0.00 | 0.00 | 47 | 1000.4 |
| 20260505001113 | 80 | 206 | 2.0 | 2.0 | 0.00 | 0.00 | 0.00 | 47 | 1000.5 |
| 20260505000609 | 80 | 152 | 0.0 | 0.0 | 0.00 | 0.00 | 0.00 | 46 | 1000.7 |
| 20260505000108 | 80 | 215 | 1.0 | 1.0 | 0.00 | 0.00 | 0.00 | 46 | 1000.6 |
| 20260504235604 | 81 | 214 | 0.0 | 1.0 | 0.00 | 0.00 | 0.00 | 45 | 1000.5 |
| 20260504235100 | 81 | 202 | 2.0 | 2.0 | 0.00 | 0.00 | 0.00 | 44 | 1000.4 |
| 20260504234557 | 81 | 176 | 0.0 | 1.0 | 0.00 | 0.00 | 0.00 | 45 | 1000.2 |
| 20260504234054 | 81 | 179 | 1.0 | 2.0 | 0.00 | 0.00 | 0.00 | 44 | 1000.5 |
| 20260504233549 | 82 | 224 | 3.0 | 3.0 | 0.00 | 0.00 | 0.00 | 44 | 1000.6 |
| 20260504233046 | 83 | 209 | 7.0 | 8.0 | 0.00 | 0.00 | 0.00 | 42 | 1000.5 |
| 20260504232543 | 84 | 215 | 1.0 | 1.0 | 0.00 | 0.00 | 0.00 | 41 | 1000.5 |
| 20260504232041 | 83 | 168 | 1.0 | 1.0 | 0.00 | 0.00 | 0.00 | 42 | 1000.4 |
| 20260504231538 | 83 | 186 | 2.0 | 3.0 | 0.00 | 0.00 | 0.00 | 42 | 1000.6 |
| 20260504231034 | 83 | 115 | 0.0 | 1.0 | 0.00 | 0.00 | 0.00 | 42 | 1000.6 |
| 20260504230530 | 84 | 195 | 2.0 | 2.0 | 0.00 | 0.00 | 0.00 | 40 | 1000.7 |
| 20260504230029 | 84 | 196 | 1.0 | 1.0 | 0.00 | 0.00 | 0.00 | 40 | 1000.6 |
| 20260504225526 | 83 | 175 | 1.0 | 1.0 | 0.00 | 0.00 | 0.00 | 41 | 1000.7 |
| 20260504225023 | 83 | 185 | 1.0 | 1.0 | 0.00 | 0.00 | 0.00 | 40 | 1000.6 |
| 20260504224519 | 82 | 263 | 2.0 | 3.0 | 0.00 | 0.00 | 0.00 | 41 | 1000.8 |
| 20260504224017 | 81 | 269 | 0.0 | 1.0 | 0.00 | 0.00 | 0.00 | 42 | 1000.7 |
| 20260504223513 | 81 | 208 | 3.0 | 3.0 | 0.00 | 0.00 | 0.00 | 41 | 1000.8 |
| 20260504223009 | 82 | 200 | 3.0 | 3.0 | 0.00 | 0.00 | 0.00 | 41 | 1000.8 |
| 20260504222506 | 82 | 215 | 3.0 | 3.0 | 0.00 | 0.00 | 0.00 | 42 | 1000.9 |
| 20260504222004 | 82 | 168 | 0.0 | 1.0 | 0.00 | 0.00 | 0.00 | 41 | 1000.7 |
| 20260504221501 | 81 | 144 | 2.0 | 3.0 | 0.00 | 0.00 | 0.00 | 40 | 1000.6 |
| 20260504220957 | 82 | 193 | 2.0 | 3.0 | 0.00 | 0.00 | 0.00 | 41 | 1000.8 |
| 20260504220454 | 82 | 177 | 1.0 | 2.0 | 0.00 | 0.00 | 0.00 | 40 | 1000.9 |
| 20260504215951 | 82 | 43 | 2.0 | 3.0 | 0.00 | 0.00 | 0.00 | 41 | 1001.0 |
| 20260504215447 | 82 | 193 | 1.0 | 2.0 | 0.00 | 0.00 | 0.00 | 40 | 1000.9 |
| 20260504214944 | 83 | 176 | 3.0 | 5.0 | 0.00 | 0.00 | 0.00 | 40 | 1000.8 |
| 20260504214441 | 84 | 107 | 1.0 | 2.0 | 0.00 | 0.00 | 0.00 | 38 | 1000.9 |
| 20260504213937 | 83 | 173 | 1.0 | 2.0 | 0.00 | 0.00 | 0.00 | 39 | 1001.1 |
| 20260504213433 | 84 | 204 | 5.0 | 6.0 | 0.00 | 0.00 | 0.00 | 37 | 1001.0 |
| 20260504212931 | 84 | 190 | 3.0 | 3.0 | 0.00 | 0.00 | 0.00 | 38 | 1001.0 |
| 20260504212426 | 84 | 224 | 3.0 | 5.0 | 0.00 | 0.00 | 0.00 | 37 | 1001.0 |
| 20260504211925 | 84 | 329 | 4.0 | 6.0 | 0.00 | 0.00 | 0.00 | 37 | 1000.9 |
| 20260504211420 | 84 | 214 | 5.0 | 6.0 | 0.00 | 0.00 | 0.00 | 38 | 1000.9 |
| 20260504210918 | 85 | 166 | 1.0 | 1.0 | 0.00 | 0.00 | 0.00 | 38 | 1000.9 |
| 20260504210415 | 85 | 234 | 6.0 | 8.0 | 0.00 | 0.00 | 0.00 | 36 | 1000.9 |
| 20260504205912 | 85 | 119 | 1.0 | 1.0 | 0.00 | 0.00 | 0.00 | 37 | 1001.2 |
| 20260504205410 | 84 | 296 | 2.0 | 3.0 | 0.00 | 0.00 | 0.00 | 37 | 1001.1 |
| 20260504204908 | 84 | 187 | 4.0 | 7.0 | 0.00 | 0.00 | 0.00 | 37 | 1001.0 |
| 20260504204406 | 84 | 147 | 0.0 | 1.0 | 0.00 | 0.00 | 0.00 | 39 | 1001.3 |
| 20260504203905 | 85 | 194 | 3.0 | 5.0 | 0.00 | 0.00 | 0.00 | 38 | 1001.0 |
| 20260504203402 | 84 | 194 | 3.0 | 5.0 | 0.00 | 0.00 | 0.00 | 40 | 1001.2 |
| 20260504202857 | 85 | 210 | 3.0 | 6.0 | 0.00 | 0.00 | 0.00 | 38 | 1001.2 |
| 20260504202354 | 84 | 219 | 2.0 | 3.0 | 0.00 | 0.00 | 0.00 | 37 | 1001.3 |
| 20260504201851 | 83 | 54 | 1.0 | 2.0 | 0.00 | 0.00 | 0.00 | 39 | 1001.1 |
| 20260504201348 | 84 | 203 | 5.0 | 5.0 | 0.00 | 0.00 | 0.00 | 39 | 1001.5 |
| 20260504200846 | 84 | 165 | 0.0 | 1.0 | 0.00 | 0.00 | 0.00 | 39 | 1001.3 |
| 20260504200342 | 83 | 32 | 2.0 | 3.0 | 0.00 | 0.00 | 0.00 | 40 | 1001.6 |
| 20260504195839 | 83 | 214 | 7.0 | 9.0 | 0.00 | 0.00 | 0.00 | 39 | 1001.3 |
| 20260504195334 | 84 | 213 | 6.0 | 8.0 | 0.00 | 0.00 | 0.00 | 38 | 1001.5 |
| 20260504194832 | 83 | 167 | 2.0 | 2.0 | 0.00 | 0.00 | 0.00 | 39 | 1001.8 |
| 20260504194328 | 84 | 313 | 2.0 | 2.0 | 0.00 | 0.00 | 0.00 | 39 | 1001.5 |
| 20260504193824 | 84 | 188 | 1.0 | 1.0 | 0.00 | 0.00 | 0.00 | 39 | 1001.7 |
| 20260504193321 | 83 | 15 | 2.0 | 2.0 | 0.00 | 0.00 | 0.00 | 39 | 1001.6 |
| 20260504192820 | 82 | 225 | 7.0 | 8.0 | 0.00 | 0.00 | 0.00 | 39 | 1001.6 |
| 20260504192317 | 82 | 211 | 1.0 | 3.0 | 0.00 | 0.00 | 0.00 | 41 | 1001.6 |
| 20260504191815 | 83 | 216 | 10.0 | 11.0 | 0.00 | 0.00 | 0.00 | 38 | 1001.7 |
| 20260504191313 | 83 | 200 | 6.0 | 7.0 | 0.00 | 0.00 | 0.00 | 39 | 1001.8 |
| 20260504190808 | 82 | 253 | 3.0 | 6.0 | 0.00 | 0.00 | 0.00 | 41 | 1001.9 |
| 20260504190304 | 81 | 147 | 5.0 | 6.0 | 0.00 | 0.00 | 0.00 | 41 | 1001.9 |
| 20260504185801 | 81 | 223 | 5.0 | 7.0 | 0.00 | 0.00 | 0.00 | 40 | 1001.7 |
| 20260504185258 | 83 | 193 | 6.0 | 7.0 | 0.00 | 0.00 | 0.00 | 38 | 1002.0 |
| 20260504184754 | 81 | 104 | 0.0 | 1.0 | 0.00 | 0.00 | 0.00 | 41 | 1001.8 |
| 20260504184250 | 80 | 232 | 7.0 | 9.0 | 0.00 | 0.00 | 0.00 | 40 | 1001.8 |
| 20260504183746 | 80 | 224 | 3.0 | 6.0 | 0.00 | 0.00 | 0.00 | 40 | 1001.7 |
| 20260504183243 | 81 | 205 | 3.0 | 5.0 | 0.00 | 0.00 | 0.00 | 40 | 1001.7 |
| 20260504182741 | 81 | 203 | 0.0 | 1.0 | 0.00 | 0.00 | 0.00 | 41 | 1001.9 |
| 20260504182238 | 80 | 107 | 4.0 | 5.0 | 0.00 | 0.00 | 0.00 | 41 | 1001.9 |
| 20260504181736 | 80 | 48 | 3.0 | 6.0 | 0.00 | 0.00 | 0.00 | 41 | 1002.2 |
| 20260504181233 | 80 | 188 | 3.0 | 3.0 | 0.00 | 0.00 | 0.00 | 42 | 1002.1 |
| 20260504180732 | 80 | 206 | 9.0 | 10.0 | 0.00 | 0.00 | 0.00 | 42 | 1002.0 |
| 20260504180231 | 80 | 222 | 2.0 | 7.0 | 0.00 | 0.00 | 0.00 | 41 | 1002.0 |
| 20260504175728 | 80 | 182 | 3.0 | 3.0 | 0.00 | 0.00 | 0.00 | 42 | 1002.2 |
| 20260504175224 | 80 | 180 | 0.0 | 0.0 | 0.00 | 0.00 | 0.00 | 45 | 1002.2 |
| 20260504174722 | 80 | 222 | 1.0 | 2.0 | 0.00 | 0.00 | 0.00 | 43 | 1002.3 |
| 20260504174220 | 80 | 312 | 2.0 | 5.0 | 0.00 | 0.00 | 0.00 | 42 | 1002.2 |
| 20260504173716 | 80 | 174 | 3.0 | 5.0 | 0.00 | 0.00 | 0.00 | 41 | 1002.5 |
| 20260504173213 | 80 | 236 | 2.0 | 5.0 | 0.00 | 0.00 | 0.00 | 41 | 1002.5 |
| 20260504172710 | 79 | 117 | 0.0 | 1.0 | 0.00 | 0.00 | 0.00 | 43 | 1002.4 |
| 20260504172206 | 79 | 227 | 5.0 | 7.0 | 0.00 | 0.00 | 0.00 | 42 | 1002.3 |
| 20260504171703 | 79 | 175 | 1.0 | 1.0 | 0.00 | 0.00 | 0.00 | 43 | 1002.4 |
| 20260504171200 | 79 | 211 | 6.0 | 8.0 | 0.00 | 0.00 | 0.00 | 41 | 1002.6 |
| 20260504170656 | 80 | 203 | 5.0 | 7.0 | 0.00 | 0.00 | 0.00 | 39 | 1002.5 |
| 20260504170154 | 79 | 61 | 3.0 | 5.0 | 0.00 | 0.00 | 0.00 | 43 | 1002.6 |
| 20260504160112 | 75 | 190 | 3.0 | 5.0 | 0.00 | 0.00 | 0.00 | 46 | 1002.9 |
| 20260504151039 | 72 | 350 | 3.0 | 5.0 | 0.00 | 0.00 | 0.00 | 48 | 1002.7 |
| 20260504150537 | 72 | 59 | 3.0 | 6.0 | 0.00 | 0.00 | 0.00 | 48 | 1003.1 |
| 20260504141003 | 67 | 180 | 2.0 | 3.0 | 0.00 | 0.00 | 0.00 | 55 | 1003.3 |
| 20260504140459 | 67 | 179 | 0.0 | 0.0 | 0.00 | 0.00 | 0.00 | 55 | 1003.3 |
| 20260504130424 | 65 | 198 | 3.0 | 3.0 | 0.00 | 0.00 | 0.00 | 59 | 1003.5 |
| 20260504110310 | 55 | 165 | 0.0 | 0.0 | 0.00 | 0.00 | 0.00 | 88 | 1003.4 |
| 20260504100228 | 55 | 148 | 0.0 | 0.0 | 0.00 | 0.00 | 0.00 | 86 | 1004.1 |
| 20260504081621 | 55 | 172 | 0.0 | 0.0 | 0.00 | 0.00 | 0.00 | 84 | 1004.6 |
| 20260504081117 | 55 | 172 | 0.0 | 0.0 | 0.00 | 0.00 | 0.00 | 83 | 1004.7 |
| 20260504080614 | 56 | 172 | 0.0 | 0.0 | 0.00 | 0.00 | 0.00 | 83 | 1004.7 |
| 20260504080111 | 56 | 172 | 0.0 | 0.0 | 0.00 | 0.00 | 0.00 | 82 | 1004.9 |
| 20260504050427 | 63 | 82 | 1.0 | 2.0 | 0.00 | 0.00 | 0.00 | 71 | 1007.1 |
| 20260504045924 | 63 | 109 | 1.0 | 1.0 | 0.00 | 0.00 | 0.00 | 71 | 1006.9 |
| 20260504045420 | 62 | 183 | 1.0 | 1.0 | 0.00 | 0.00 | 0.00 | 72 | 1007.0 |
| 20260504044916 | 62 | 99 | 0.0 | 0.0 | 0.00 | 0.00 | 0.00 | 73 | 1006.9 |
| 20260504044414 | 62 | 134 | 0.0 | 1.0 | 0.00 | 0.00 | 0.00 | 75 | 1007.2 |
| 20260504043911 | 61 | 130 | 0.0 | 0.0 | 0.00 | 0.00 | 0.00 | 77 | 1007.1 |
| 20260504043408 | 61 | 155 | 0.0 | 0.0 | 0.00 | 0.00 | 0.00 | 77 | 1007.0 |
| 20260504042905 | 61 | 152 | 0.0 | 0.0 | 0.00 | 0.00 | 0.00 | 77 | 1007.0 |
| 20260504042402 | 60 | 170 | 0.0 | 1.0 | 0.00 | 0.00 | 0.00 | 78 | 1007.0 |
| 20260504041858 | 60 | 143 | 0.0 | 0.0 | 0.00 | 0.00 | 0.00 | 79 | 1007.3 |
| 20260504041354 | 60 | 143 | 1.0 | 1.0 | 0.00 | 0.00 | 0.00 | 78 | 1007.1 |
| 20260504040850 | 60 | 143 | 0.0 | 0.0 | 0.00 | 0.00 | 0.00 | 78 | 1007.3 |
| 20260504040348 | 60 | 142 | 0.0 | 0.0 | 0.00 | 0.00 | 0.00 | 77 | 1007.0 |
| 20260504035844 | 60 | 157 | 0.0 | 0.0 | 0.00 | 0.00 | 0.00 | 77 | 1006.9 |
| 20260504035342 | 61 | 157 | 0.0 | 0.0 | 0.00 | 0.00 | 0.00 | 76 | 1007.1 |
| 20260504034838 | 61 | 158 | 0.0 | 0.0 | 0.00 | 0.00 | 0.00 | 75 | 1006.8 |
| 20260504034336 | 62 | 158 | 0.0 | 0.0 | 0.00 | 0.00 | 0.00 | 74 | 1007.1 |
| 20260504033833 | 62 | 158 | 0.0 | 0.0 | 0.00 | 0.00 | 0.00 | 73 | 1007.2 |
| 20260504033331 | 62 | 166 | 0.0 | 0.0 | 0.00 | 0.00 | 0.00 | 71 | 1006.9 |
| 20260504032827 | 62 | 167 | 0.0 | 0.0 | 0.00 | 0.00 | 0.00 | 71 | 1007.2 |
| 20260504032324 | 62 | 167 | 1.0 | 1.0 | 0.00 | 0.00 | 0.00 | 71 | 1007.0 |
| 20260504031821 | 62 | 167 | 0.0 | 0.0 | 0.00 | 0.00 | 0.00 | 70 | 1006.9 |
| 20260504031319 | 63 | 145 | 0.0 | 0.0 | 0.00 | 0.00 | 0.00 | 69 | 1007.0 |
| 20260504030815 | 63 | 145 | 0.0 | 0.0 | 0.00 | 0.00 | 0.00 | 69 | 1007.1 |
| 20260504030312 | 63 | 168 | 0.0 | 0.0 | 0.00 | 0.00 | 0.00 | 68 | 1007.3 |
| 20260504025808 | 64 | 161 | 0.0 | 0.0 | 0.00 | 0.00 | 0.00 | 67 | 1007.1 |
| 20260504025306 | 64 | 162 | 0.0 | 0.0 | 0.00 | 0.00 | 0.00 | 65 | 1007.3 |
| 20260504024802 | 64 | 162 | 0.0 | 0.0 | 0.00 | 0.00 | 0.00 | 63 | 1007.3 |
| 20260504024258 | 64 | 156 | 0.0 | 0.0 | 0.00 | 0.00 | 0.00 | 63 | 1007.2 |
| 20260504023755 | 64 | 156 | 0.0 | 0.0 | 0.00 | 0.00 | 0.00 | 62 | 1007.2 |
| 20260504023252 | 65 | 155 | 0.0 | 0.0 | 0.00 | 0.00 | 0.00 | 62 | 1006.9 |
| 20260504022747 | 65 | 155 | 0.0 | 0.0 | 0.00 | 0.00 | 0.00 | 61 | 1007.0 |
| 20260504022244 | 66 | 156 | 0.0 | 1.0 | 0.00 | 0.00 | 0.00 | 61 | 1007.2 |
| 20260504021741 | 66 | 149 | 0.0 | 0.0 | 0.00 | 0.00 | 0.00 | 61 | 1007.1 |
| 20260504021238 | 66 | 136 | 0.0 | 0.0 | 0.00 | 0.00 | 0.00 | 60 | 1007.4 |
| 20260504020735 | 67 | 140 | 0.0 | 0.0 | 0.00 | 0.00 | 0.00 | 59 | 1007.1 |
| 20260504020231 | 67 | 139 | 0.0 | 0.0 | 0.00 | 0.00 | 0.00 | 59 | 1007.1 |
| 20260504015728 | 68 | 160 | 0.0 | 0.0 | 0.00 | 0.00 | 0.00 | 59 | 1007.2 |
| 20260504015224 | 68 | 170 | 0.0 | 0.0 | 0.00 | 0.00 | 0.00 | 58 | 1007.2 |
| 20260504014720 | 69 | 181 | 1.0 | 2.0 | 0.00 | 0.00 | 0.00 | 57 | 1006.9 |
| 20260504014217 | 69 | 144 | 0.0 | 0.0 | 0.00 | 0.00 | 0.00 | 56 | 1007.1 |
| 20260504013715 | 69 | 177 | 0.0 | 0.0 | 0.00 | 0.00 | 0.00 | 54 | 1007.1 |
| 20260504013212 | 70 | 162 | 0.0 | 0.0 | 0.00 | 0.00 | 0.00 | 53 | 1007.0 |
| 20260504012709 | 70 | 178 | 0.0 | 1.0 | 0.00 | 0.00 | 0.00 | 52 | 1007.0 |
| 20260504012207 | 70 | 162 | 0.0 | 0.0 | 0.00 | 0.00 | 0.00 | 51 | 1006.9 |
| 20260504011703 | 71 | 160 | 0.0 | 0.0 | 0.00 | 0.00 | 0.00 | 51 | 1007.1 |